CW4141 Weather Reports


Display with metric or nautical units.
time (UTC)temp
F
wind
direction
speed
MPH
gust
MPH
rain 1hr
in
rain 24hr
in
rain mn
in
humidity
%
barometer
mb
20260502123048 53 0 0.0 1.0 0.00 0.00 0.00 90 1014.8
20260502123008 53 154 0.0 1.0 0.00 0.00 0.00 91 1011.0
20260502121555 53 0 0.0 2.0 0.00 0.00 0.00 90 1014.6
20260502121507 53 154 0.0 1.0 0.00 0.00 0.00 90 1011.1
20260502114557 52 154 0.0 3.0 0.00 0.00 0.00 87 1014.5
20260502114507 52 154 1.0 3.0 0.00 0.00 0.00 88 1011.0
20260502113054 52 0 0.0 0.0 0.00 0.00 0.00 86 1014.4
20260502113005 52 154 0.0 0.0 0.00 0.00 0.00 86 1010.9
20260502111554 52 0 0.0 0.0 0.00 0.00 0.00 85 1014.3
20260502111504 52 154 0.0 0.0 0.00 0.00 0.00 86 1010.6
20260502110054 52 0 0.0 0.0 0.00 0.00 0.00 85 1014.1
20260502110003 53 154 0.0 0.0 0.00 0.00 0.00 85 1010.7
20260502104553 53 0 0.0 0.0 0.00 0.00 0.00 85 1014.2
20260502104502 53 154 0.0 0.0 0.00 0.00 0.00 85 1010.6
20260502103100 53 154 0.0 0.0 0.00 0.00 0.00 85 1010.6
20260502103050 53 0 0.0 0.0 0.00 0.00 0.00 84 1014.2
20260502101602 53 154 0.0 0.0 0.00 0.00 0.00 84 1010.7
20260502101554 53 0 0.0 0.0 0.00 0.00 0.00 84 1014.1
20260502070040 58 154 0.0 0.0 0.00 0.00 0.00 83 1011.8
20260502064551 58 0 0.0 0.0 0.00 0.00 0.00 82 1015.3
20260502064537 58 154 0.0 0.0 0.00 0.00 0.00 83 1011.8
20260502063057 58 0 0.0 0.0 0.00 0.00 0.00 82 1015.5
20260502063052 58 154 0.0 0.0 0.00 0.00 0.00 82 1011.7
20260502061554 59 0 0.0 0.0 0.00 0.00 0.00 82 1015.3
20260502061541 59 154 0.0 0.0 0.00 0.00 0.00 82 1011.7
20260502060052 59 0 0.0 1.0 0.00 0.00 0.00 82 1015.3
20260502060037 59 154 0.0 1.0 0.00 0.00 0.00 82 1011.6
20260502054551 59 0 0.0 1.0 0.00 0.00 0.00 81 1015.3
20260502054536 59 154 0.0 1.0 0.00 0.00 0.00 82 1011.6
20260502053115 59 0 0.0 0.0 0.00 0.00 0.00 81 1015.5
20260502053045 59 154 0.0 0.0 0.00 0.00 0.00 81 1011.8
20260502051614 60 0 0.0 2.0 0.00 0.00 0.00 80 1015.5
20260502051536 60 154 0.0 2.0 0.00 0.00 0.00 81 1011.9
20260502050056 60 154 0.0 2.0 0.00 0.00 0.00 79 1015.5
20260502050034 60 154 0.0 2.0 0.00 0.00 0.00 80 1011.7
20260502044552 60 0 0.0 2.0 0.00 0.00 0.00 79 1015.3
20260502044533 60 154 0.0 2.0 0.00 0.00 0.00 79 1011.5
20260502043100 61 0 0.0 2.0 0.00 0.00 0.00 78 1015.1
20260502043038 61 154 0.0 2.0 0.00 0.00 0.00 78 1011.5
20260502041621 61 154 0.0 5.0 0.00 0.00 0.00 77 1015.1
20260502041533 61 154 0.0 4.0 0.00 0.00 0.00 78 1011.4
20260502040051 62 0 0.0 2.0 0.00 0.00 0.00 76 1014.8
20260502040034 62 155 0.0 2.0 0.00 0.00 0.00 76 1011.1
20260502034552 63 155 0.0 5.0 0.00 0.00 0.00 74 1014.6
20260502034531 63 155 0.0 4.0 0.00 0.00 0.00 74 1010.9
20260502033105 64 159 1.0 5.0 0.00 0.00 0.00 71 1014.4
20260502033031 64 157 1.0 4.0 0.00 0.00 0.00 72 1010.8
20260502031553 65 160 1.0 5.0 0.00 0.00 0.00 68 1014.3
20260502031531 65 160 1.0 4.0 0.00 0.00 0.00 69 1010.5
20260502030056 67 0 0.0 5.0 0.00 0.00 0.00 66 1014.0
20260502030030 67 165 0.0 4.0 0.00 0.00 0.00 67 1010.4
20260502024551 68 0 1.0 5.0 0.00 0.00 0.00 65 1013.8
20260502024531 68 169 1.0 4.0 0.00 0.00 0.00 65 1010.1
20260502023057 69 0 1.0 5.0 0.00 0.00 0.00 63 1013.6
20260502023034 69 169 1.0 4.0 0.00 0.00 0.00 63 1009.9
20260502021555 70 153 1.0 5.0 0.00 0.00 0.00 61 1013.4
20260502021530 70 153 1.0 5.0 0.00 0.00 0.00 61 1009.8
20260502020054 71 142 1.0 5.0 0.00 0.00 0.00 60 1013.1
20260502020028 71 142 1.0 5.0 0.00 0.00 0.00 60 1009.6
20260502014553 72 171 2.0 6.0 0.00 0.00 0.00 59 1013.0
20260502014527 72 171 1.0 5.0 0.00 0.00 0.00 59 1009.4
20260502013052 73 198 2.0 5.0 0.00 0.00 0.00 57 1012.7
20260502013026 73 198 2.0 5.0 0.00 0.00 0.00 57 1009.3
20260502011553 74 151 2.0 7.0 0.00 0.00 0.00 55 1012.7
20260502011526 74 151 2.0 6.0 0.00 0.00 0.00 56 1009.4
20260502010057 75 0 2.0 7.0 0.00 0.00 0.00 54 1012.7
20260502010025 75 150 2.0 7.0 0.00 0.00 0.00 55 1009.2
20260502004555 76 225 3.0 8.0 0.00 0.00 0.00 52 1012.7
20260502004525 76 225 2.0 7.0 0.00 0.00 0.00 53 1009.2
20260502003055 77 215 1.0 4.0 0.00 0.00 0.00 52 1012.5
20260502003024 77 215 0.0 4.0 0.00 0.00 0.00 52 1009.0
20260502001559 78 0 0.0 7.0 0.00 0.00 0.00 51 1012.4
20260502001526 78 215 0.0 6.0 0.00 0.00 0.00 51 1008.9
20260502000050 79 134 2.0 6.0 0.00 0.00 0.00 49 1012.4
20260502000023 79 134 2.0 6.0 0.00 0.00 0.00 50 1008.9
20260501234548 80 207 1.0 7.0 0.00 0.00 0.00 48 1012.3
20260501234522 80 207 0.0 7.0 0.00 0.00 0.00 49 1008.9
20260501233106 81 194 1.0 5.0 0.00 0.00 0.00 46 1012.3
20260501233021 81 194 1.0 3.0 0.00 0.00 0.00 46 1008.8
20260501231610 82 146 2.0 8.0 0.00 0.00 0.00 45 1012.2
20260501231522 82 146 2.0 7.0 0.00 0.00 0.00 45 1008.8
20260501230051 83 0 1.0 6.0 0.00 0.00 0.00 43 1012.2
20260501230025 83 220 2.0 6.0 0.00 0.00 0.00 43 1008.9
20260501224551 84 191 1.0 5.0 0.00 0.00 0.00 42 1012.4
20260501224519 84 191 1.0 5.0 0.00 0.00 0.00 43 1009.0
20260501223111 85 209 1.0 7.0 0.00 0.00 0.00 41 1012.4
20260501223018 85 209 2.0 7.0 0.00 0.00 0.00 41 1009.2
20260501221553 85 215 0.0 8.0 0.00 0.00 0.00 40 1012.7
20260501221518 85 215 0.0 8.0 0.00 0.00 0.00 40 1009.4
20260501220052 86 188 1.0 4.0 0.00 0.00 0.00 39 1013.0
20260501220015 86 188 1.0 4.0 0.00 0.00 0.00 39 1009.4
20260501214555 86 211 0.0 6.0 0.00 0.00 0.00 40 1013.0
20260501214513 86 211 1.0 6.0 0.00 0.00 0.00 40 1009.6
20260501213100 86 205 1.0 6.0 0.00 0.00 0.00 39 1013.3
20260501213013 86 205 1.0 6.0 0.00 0.00 0.00 39 1009.9
20260501211554 86 157 0.0 5.0 0.00 0.00 0.00 40 1013.3
20260501211512 86 157 0.0 4.0 0.00 0.00 0.00 41 1010.0
20260501210058 85 155 0.0 3.0 0.00 0.00 0.00 41 1013.5
20260501210009 85 155 0.0 3.0 0.00 0.00 0.00 41 1010.0
20260501204614 84 155 0.0 5.0 0.00 0.00 0.00 43 1013.5
20260501204505 84 155 0.0 4.0 0.00 0.00 0.00 43 1010.1
20260501203053 83 154 0.0 5.0 0.00 0.00 0.00 44 1013.6
20260501203001 82 153 0.0 4.0 0.00 0.00 0.00 45 1010.3
20260501201604 82 152 0.0 3.0 0.00 0.00 0.00 45 1010.6
20260501201554 82 0 0.0 3.0 0.00 0.00 0.00 44 1013.8
20260501200100 81 151 0.0 3.0 0.00 0.00 0.00 46 1013.9
20260501200056 81 151 0.0 3.0 0.00 0.00 0.00 47 1010.7
20260501194556 79 150 0.0 3.0 0.00 0.00 0.00 48 1010.9
20260501194549 79 0 0.0 3.0 0.00 0.00 0.00 48 1014.1
20260501193054 77 149 1.0 4.0 0.00 0.00 0.00 49 1014.3
20260501193048 77 150 1.0 4.0 0.00 0.00 0.00 49 1011.1
20260501191559 76 0 0.0 5.0 0.00 0.00 0.00 54 1014.6
20260501191545 76 152 0.0 4.0 0.00 0.00 0.00 54 1011.3
20260501190053 75 0 0.0 5.0 0.00 0.00 0.00 57 1014.7
20260501190040 75 154 0.0 4.0 0.00 0.00 0.00 58 1011.7
20260501184555 73 0 0.0 5.0 0.00 0.00 0.00 56 1014.9
20260501184536 73 155 0.0 4.0 0.00 0.00 0.00 57 1011.8
20260501183055 72 152 1.0 3.0 0.00 0.00 0.00 58 1015.0
20260501183032 72 152 1.0 3.0 0.00 0.00 0.00 58 1012.1
20260501181600 71 151 1.0 5.0 0.00 0.00 0.00 60 1015.2
20260501181530 71 151 2.0 4.0 0.00 0.00 0.00 61 1012.3
20260501180027 70 151 0.0 3.0 0.00 0.00 0.00 62 1012.4
20260501174607 69 0 0.0 3.0 0.00 0.00 0.00 69 1015.6
20260501174520 68 148 0.0 2.0 0.00 0.00 0.00 69 1012.5
20260501173051 67 148 0.0 2.0 0.00 0.00 0.00 72 1015.6
20260501173015 67 148 0.0 2.0 0.00 0.00 0.00 73 1012.5
20260501171550 64 0 0.0 2.0 0.00 0.00 0.00 79 1015.7
20260501171511 64 148 0.0 2.0 0.00 0.00 0.00 79 1012.6
20260501170052 61 148 0.0 2.0 0.00 0.00 0.00 87 1015.8
20260501170014 61 148 0.0 1.0 0.00 0.00 0.00 87 1012.8
20260501164554 58 0 0.0 1.0 0.00 0.00 0.00 89 1015.9
20260501164504 58 148 0.0 0.0 0.00 0.00 0.00 90 1012.9
20260501163058 57 148 0.0 1.0 0.00 0.00 0.00 90 1012.9
20260501163054 57 0 0.0 1.0 0.00 0.00 0.00 90 1015.8
20260501161602 56 148 0.0 1.0 0.00 0.00 0.00 90 1015.8
20260501161555 56 148 0.0 2.0 0.00 0.00 0.00 91 1012.9
20260501160057 56 0 0.0 2.0 0.00 0.00 0.00 91 1015.9
20260501160049 56 148 0.0 2.0 0.00 0.00 0.00 91 1012.9
20260501154600 56 148 0.0 0.0 0.00 0.00 0.00 92 1012.9
20260501154558 56 0 0.0 0.0 0.00 0.00 0.00 91 1015.8
20260501153054 55 0 0.0 0.0 0.00 0.00 0.00 91 1015.8
20260501153043 55 148 0.0 0.0 0.00 0.00 0.00 92 1012.9
20260501151555 55 148 0.0 1.0 0.00 0.00 0.00 91 1015.8
20260501151541 55 148 0.0 1.0 0.00 0.00 0.00 92 1012.9
20260501150054 54 0 0.0 0.0 0.00 0.00 0.00 91 1015.7
20260501150037 54 148 0.0 0.0 0.00 0.00 0.00 92 1012.8
20260501144551 54 0 0.0 2.0 0.00 0.00 0.00 91 1015.6
20260501144535 54 148 0.0 2.0 0.00 0.00 0.00 91 1012.7
20260501143111 54 0 0.0 2.0 0.00 0.00 0.00 91 1015.6
20260501143032 54 148 0.0 2.0 0.00 0.00 0.00 91 1012.6
20260501141558 54 0 0.0 0.0 0.00 0.00 0.00 91 1015.5
20260501141530 54 148 0.0 0.0 0.00 0.00 0.00 91 1012.5
20260501140115 54 148 0.0 2.0 0.00 0.00 0.00 91 1015.4
20260501140028 54 148 0.0 2.0 0.00 0.00 0.00 91 1012.4